F4GQK-13 Weather Reports


time (UTC)temp
F
wind
direction
speed
knots
gust
knots
rain 1hr
in
rain 24hr
in
rain mn
in
humidity
%
barometer
mb
20260510021005 56 63 3.5 6.1 0.00 0.00 0.00 82 1011.2
20260510020503 57 58 1.7 6.1 0.00 0.00 0.00 82 1011.1
20260510020005 57 65 2.6 5.2 0.00 0.00 0.00 81 1011.2
20260510015505 57 78 5.2 6.1 0.00 0.00 0.00 81 1011.4
20260510015005 57 101 2.6 6.1 0.00 0.00 0.00 81 1011.4
20260510014505 57 78 2.6 6.1 0.00 0.00 0.00 81 1011.4
20260510014004 57 45 3.5 5.2 0.00 0.00 0.00 81 1011.4
20260510013505 57 86 3.5 6.1 0.00 0.00 0.00 81 1011.3
20260510013005 57 15 3.5 3.5 0.00 0.00 0.00 81 1011.4
20260510012505 57 73 3.5 7.0 0.00 0.00 0.00 81 1011.4
20260510012004 57 46 2.6 7.0 0.00 0.00 0.00 81 1011.4
20260510011505 57 51 4.3 6.1 0.00 0.00 0.00 81 1011.4
20260510011004 57 0 4.3 7.0 0.00 0.00 0.00 81 1011.2
20260510010505 57 58 5.2 7.8 0.00 0.00 0.00 81 1011.6
20260510010006 57 116 1.7 5.2 0.00 0.00 0.00 81 1011.7
20260510005504 57 41 3.5 5.2 0.00 0.00 0.00 81 1011.8
20260510005005 57 47 2.6 5.2 0.00 0.00 0.00 81 1011.9
20260510004506 57 344 1.7 3.5 0.00 0.00 0.00 81 1012.0
20260510004005 57 83 2.6 3.5 0.00 0.00 0.00 81 1011.9
20260510003502 57 60 3.5 3.5 0.00 0.00 0.00 81 1011.9
20260510003005 58 10 1.7 5.2 0.00 0.00 0.00 81 1011.9
20260510002505 58 81 1.7 2.6 0.00 0.00 0.00 81 1011.9
20260510002005 58 16 2.6 3.5 0.00 0.00 0.00 80 1011.9
20260510001505 58 55 3.5 5.2 0.00 0.00 0.00 80 1012.2
20260510001006 59 95 1.7 3.5 0.00 0.00 0.00 79 1012.3
20260510000505 59 74 3.5 6.1 0.00 0.00 0.00 79 1012.3
20260510000005 59 80 1.7 5.2 0.00 0.00 0.00 79 1012.1
20260509235504 59 348 2.6 7.0 0.00 0.00 0.00 78 1012.3
20260509235005 59 354 2.6 5.2 0.00 0.00 0.00 78 1012.3
20260509234505 59 90 2.6 6.1 0.00 0.00 0.00 78 1012.4
20260509234004 59 35 4.3 7.0 0.00 0.00 0.00 79 1012.4
20260509233505 59 11 3.5 7.0 0.00 0.00 0.00 78 1012.4
20260509233005 59 38 2.6 5.2 0.00 0.00 0.00 78 1012.6
20260509232505 59 22 1.7 5.2 0.00 0.00 0.00 79 1012.5
20260509232004 59 10 3.5 5.2 0.00 0.00 0.00 79 1012.7
20260509231505 60 350 3.5 3.5 0.00 0.00 0.00 78 1012.8
20260509231005 60 31 1.7 5.2 0.00 0.00 0.00 78 1012.8
20260509230505 60 8 2.6 5.2 0.00 0.00 0.00 77 1012.8
20260509230006 60 344 1.7 3.5 0.00 0.00 0.00 78 1012.8
20260509225503 60 15 2.6 3.5 0.00 0.00 0.00 77 1012.9
20260509225006 60 8 1.7 2.6 0.00 0.00 0.00 78 1013.0
20260509224503 60 19 1.7 2.6 0.00 0.00 0.00 78 1012.9
20260509224005 60 50 0.9 1.7 0.00 0.00 0.00 78 1013.1
20260509223505 60 31 1.7 2.6 0.00 0.00 0.00 77 1012.9
20260509223004 60 7 1.7 2.6 0.00 0.00 0.00 77 1012.8
20260509222505 60 51 0.9 2.6 0.00 0.00 0.00 77 1012.8
20260509222005 60 25 0.9 2.6 0.00 0.00 0.00 77 1012.8
20260509221505 60 72 1.7 3.5 0.00 0.00 0.00 78 1012.8
20260509221005 60 76 2.6 3.5 0.00 0.00 0.00 78 1012.8
20260509220505 60 72 1.7 3.5 0.00 0.00 0.00 77 1012.8
20260509220005 61 56 1.7 2.6 0.00 0.00 0.00 77 1012.8
20260509215504 61 18 2.6 3.5 0.00 0.00 0.00 77 1012.8
20260509215004 61 90 3.5 3.5 0.00 0.00 0.00 77 1012.7
20260509214505 61 42 2.6 2.6 0.00 0.00 0.00 78 1012.7
20260509214005 61 101 2.6 3.5 0.00 0.00 0.00 77 1012.9
20260509213505 61 76 2.6 5.2 0.00 0.00 0.00 78 1013.0
20260509213007 61 72 0.9 2.6 0.00 0.00 0.00 78 1013.0
20260509212505 61 42 1.7 2.6 0.00 0.00 0.00 78 1013.0
20260509212004 61 58 1.7 3.5 0.00 0.00 0.00 78 1013.2
20260509211505 61 19 2.6 2.6 0.00 0.00 0.00 78 1013.0
20260509211004 61 16 2.6 6.1 0.00 0.00 0.00 78 1013.0
20260509210506 61 37 1.7 3.5 0.00 0.00 0.00 79 1013.1
20260509210005 61 23 2.6 2.6 0.00 0.00 0.00 79 1013.1
20260509205505 62 29 0.9 2.6 0.00 0.00 0.00 79 1013.0
20260509205006 62 21 0.9 2.6 0.00 0.00 0.00 79 1012.9
20260509204504 62 26 1.7 2.6 0.00 0.00 0.00 79 1013.0
20260509204005 62 36 1.7 3.5 0.00 0.00 0.00 80 1012.9
20260509203504 62 25 1.7 3.5 0.00 0.00 0.00 79 1012.9
20260509203005 62 49 0.9 1.7 0.00 0.00 0.00 79 1012.9
20260509202504 62 351 0.9 1.7 0.00 0.00 0.00 79 1012.8
20260509202004 62 354 2.6 2.6 0.00 0.00 0.00 80 1012.9
20260509201504 62 0 1.7 1.7 0.00 0.00 0.00 80 1013.1
20260509201005 62 23 0.9 2.6 0.00 0.00 0.00 79 1012.9
20260509200505 63 20 0.9 1.7 0.00 0.00 0.00 79 1012.7
20260509195505 63 71 0.0 0.9 0.00 0.00 0.00 78 1013.0
20260509195004 63 60 0.0 0.9 0.00 0.00 0.00 78 1012.9
20260509194504 64 61 0.9 1.7 0.00 0.00 0.00 77 1012.9
20260509194006 64 39 0.9 1.7 0.00 0.00 0.00 77 1012.7
20260509193504 64 15 0.9 2.6 0.00 0.00 0.00 77 1012.8
20260509193006 64 19 1.7 2.6 0.00 0.00 0.00 76 1012.7
20260509192505 65 0 0.9 3.5 0.00 0.00 0.00 76 1012.6
20260509192005 65 12 0.9 1.7 0.00 0.00 0.00 75 1012.5
20260509191505 65 23 0.9 2.6 0.00 0.00 0.00 75 1012.6
20260509191005 66 18 1.7 2.6 0.00 0.00 0.00 74 1012.6
20260509190504 66 352 1.7 2.6 0.00 0.00 0.00 74 1012.6
20260509190006 67 25 0.9 1.7 0.00 0.00 0.00 73 1012.6
20260509185505 67 0 0.9 1.7 0.00 0.00 0.00 72 1012.7
20260509185005 67 61 0.9 0.9 0.00 0.00 0.00 71 1012.7
20260509184504 68 63 1.7 2.6 0.00 0.00 0.00 71 1012.6
20260509184004 69 53 1.7 1.7 0.00 0.00 0.00 70 1012.4
20260509183505 69 356 1.7 2.6 0.00 0.00 0.00 69 1012.6
20260509183006 69 47 1.7 2.6 0.00 0.00 0.00 68 1012.3
20260509182504 70 0 2.6 2.6 0.00 0.00 0.00 68 1012.6
20260509182004 70 53 1.7 2.6 0.00 0.00 0.00 67 1012.6
20260509181505 70 72 3.5 6.1 0.00 0.00 0.00 67 1012.4
20260509181004 71 106 2.6 5.2 0.00 0.00 0.00 66 1012.6
20260509180505 71 26 1.7 2.6 0.00 0.00 0.00 65 1012.5
20260509180005 71 68 3.5 6.1 0.00 0.00 0.00 64 1012.5
20260509175504 72 41 2.6 3.5 0.00 0.00 0.00 63 1012.5
20260509175006 72 64 2.6 5.2 0.00 0.00 0.00 62 1012.5
20260509174505 72 87 3.5 3.5 0.00 0.00 0.00 62 1012.5
20260509174005 72 36 1.7 5.2 0.00 0.00 0.00 61 1012.8
20260509173505 72 84 4.3 7.0 0.00 0.00 0.00 61 1012.6
20260509173005 73 68 4.3 7.8 0.00 0.00 0.00 61 1012.5
20260509172504 73 84 2.6 3.5 0.00 0.00 0.00 60 1012.7
20260509172005 73 101 3.5 5.2 0.00 0.00 0.00 62 1012.8
20260509171505 73 31 0.9 5.2 0.00 0.00 0.00 59 1012.7
20260509171005 73 47 1.7 3.5 0.00 0.00 0.00 62 1012.7
20260509170506 73 25 1.7 2.6 0.00 0.00 0.00 60 1013.0
20260509170006 73 53 2.6 5.2 0.00 0.00 0.00 60 1012.6
20260509165504 74 44 2.6 3.5 0.00 0.00 0.00 60 1012.9
20260509165005 74 123 1.7 3.5 0.00 0.00 0.00 59 1012.9
20260509164504 74 137 4.3 7.0 0.00 0.00 0.00 57 1012.8
20260509164004 74 93 3.5 6.1 0.00 0.00 0.00 58 1012.8
20260509163505 74 85 0.9 5.2 0.00 0.00 0.00 58 1012.7
20260509163004 74 101 1.7 3.5 0.00 0.00 0.00 60 1012.8
20260509162505 74 139 4.3 6.1 0.00 0.00 0.00 59 1012.9
20260509162004 74 58 2.6 7.0 0.00 0.00 0.00 58 1013.0
20260509161504 74 114 4.3 7.0 0.00 0.00 0.00 59 1012.8
20260509161006 74 76 3.5 5.2 0.00 0.00 0.00 60 1013.0
20260509160506 74 81 5.2 8.7 0.00 0.00 0.00 58 1013.2
20260509160006 75 65 5.2 7.0 0.00 0.00 0.00 56 1013.0
20260509155504 74 106 1.7 5.2 0.00 0.00 0.00 56 1013.0
20260509155004 74 67 0.9 2.6 0.00 0.00 0.00 57 1013.3
20260509154506 74 70 0.0 3.5 0.00 0.00 0.00 56 1013.2
20260509154005 74 110 4.3 6.1 0.00 0.00 0.00 56 1013.3
20260509153506 75 76 3.5 5.2 0.00 0.00 0.00 56 1013.2
20260509153004 75 57 2.6 5.2 0.00 0.00 0.00 55 1013.3
20260509152503 75 36 3.5 7.0 0.00 0.00 0.00 56 1013.1
20260509152005 76 55 5.2 6.1 0.00 0.00 0.00 55 1013.2
20260509151506 76 61 4.3 6.1 0.00 0.00 0.00 55 1013.1
20260509151006 76 35 1.7 2.6 0.00 0.00 0.00 54 1013.3
20260509150506 76 117 2.6 5.2 0.00 0.00 0.00 52 1013.4
20260509150005 78 119 2.6 6.1 0.00 0.00 0.00 52 1013.5
20260509145504 77 93 6.1 7.8 0.00 0.00 0.00 50 1013.4
20260509145006 77 118 3.5 7.0 0.00 0.00 0.00 51 1013.6
20260509144505 77 54 2.6 7.8 0.00 0.00 0.00 52 1013.5
20260509144005 77 34 2.6 5.2 0.00 0.00 0.00 54 1013.6
20260509143506 77 93 4.3 9.6 0.00 0.00 0.00 54 1013.5
20260509143005 78 86 3.5 6.1 0.00 0.00 0.00 54 1013.6
20260509142504 77 49 4.3 5.2 0.00 0.00 0.00 55 1013.6
20260509142004 78 67 1.7 7.0 0.00 0.00 0.00 52 1013.7
20260509141505 77 81 3.5 9.6 0.00 0.00 0.00 52 1013.8
20260509141005 78 116 5.2 11.3 0.00 0.00 0.00 49 1013.4
20260509140505 77 69 1.7 8.7 0.00 0.00 0.00 53 1013.6
20260509140006 76 131 3.5 6.1 0.00 0.00 0.00 54 1013.7
20260509135505 76 145 3.5 6.1 0.00 0.00 0.00 56 1013.6
20260509135005 77 41 4.3 9.6 0.00 0.00 0.00 54 1013.5
20260509134005 77 84 5.2 7.8 0.00 0.00 0.00 54 1013.7
20260509133506 77 347 5.2 9.6 0.00 0.00 0.00 54 1013.8
20260509133006 77 73 5.2 9.6 0.00 0.00 0.00 55 1013.7
20260509132505 77 81 4.3 9.6 0.00 0.00 0.00 56 1013.8
20260509131506 76 85 6.1 8.7 0.00 0.00 0.00 57 1013.9
20260509131004 77 85 7.0 8.7 0.00 0.00 0.00 56 1013.8
20260509130505 76 30 3.5 8.7 0.00 0.00 0.00 55 1013.9
20260509130006 76 11 2.6 6.1 0.00 0.00 0.00 54 1014.0
20260509125505 76 88 7.8 9.6 0.00 0.00 0.00 54 1014.1
20260509125005 77 125 8.7 11.3 0.00 0.00 0.00 54 1014.1
20260509124504 77 42 4.3 7.0 0.00 0.00 0.00 54 1014.0
20260509124005 76 114 4.3 7.0 0.00 0.00 0.00 54 1014.1
20260509123505 76 122 5.2 9.6 0.00 0.00 0.00 55 1014.4
20260509123005 75 116 4.3 7.0 0.00 0.00 0.00 56 1014.4
20260509122504 74 98 8.7 11.3 0.00 0.00 0.00 57 1014.5
20260509122006 75 76 5.2 9.6 0.00 0.00 0.00 56 1014.3
20260509121506 75 95 7.0 8.7 0.00 0.00 0.00 60 1014.3
20260509121005 75 32 2.6 7.8 0.00 0.00 0.00 59 1014.4
20260509120505 74 50 5.2 7.0 0.00 0.00 0.00 60 1014.5
20260509120005 75 95 7.0 8.7 0.00 0.00 0.00 62 1014.7
20260509115505 74 83 3.5 11.3 0.00 0.00 0.00 60 1014.7
20260509115005 75 51 7.8 9.6 0.00 0.00 0.00 62 1014.5
20260509114506 74 86 4.3 7.8 0.00 0.00 0.00 63 1014.7
20260509114004 74 48 3.5 9.6 0.00 0.00 0.00 61 1014.6
20260509113504 74 23 5.2 7.0 0.00 0.00 0.00 62 1014.6
20260509113005 73 81 3.5 7.8 0.00 0.00 0.00 63 1014.7
20260509112505 74 55 5.2 11.3 0.00 0.00 0.00 63 1014.8
20260509112005 73 0 1.7 7.0 0.00 0.00 0.00 63 1014.9
20260509111505 73 98 4.3 8.7 0.00 0.00 0.00 62 1015.0
20260509111005 73 81 2.6 7.8 0.00 0.00 0.00 63 1015.0
20260509110504 73 139 1.7 3.5 0.00 0.00 0.00 64 1015.0
20260509110004 73 98 5.2 7.8 0.00 0.00 0.00 64 1015.1
20260509105505 73 117 5.2 7.0 0.00 0.00 0.00 64 1015.1
20260509105006 73 48 4.3 6.1 0.00 0.00 0.00 66 1015.1
20260509104504 73 349 2.6 6.1 0.00 0.00 0.00 67 1015.0
20260509104005 73 111 4.3 7.0 0.00 0.00 0.00 62 1015.2
20260509103505 72 45 3.5 7.0 0.00 0.00 0.00 65 1015.1
20260509103005 72 99 1.7 6.1 0.00 0.00 0.00 67 1015.2
20260509102505 72 95 5.2 7.0 0.00 0.00 0.00 66 1015.2
20260509102005 71 159 1.7 5.2 0.00 0.00 0.00 67 1015.3
20260509101503 71 82 4.3 6.1 0.00 0.00 0.00 65 1015.4
20260509101005 71 105 5.2 7.8 0.00 0.00 0.00 66 1015.3
20260509100505 72 81 5.2 7.8 0.00 0.00 0.00 68 1015.3
20260509100006 72 45 2.6 2.6 0.00 0.00 0.00 65 1015.3
20260509095505 71 70 2.6 7.0 0.00 0.00 0.00 67 1015.4
20260509095005 71 89 5.2 7.0 0.00 0.00 0.00 68 1015.3
20260509094505 70 55 3.5 6.1 0.00 0.00 0.00 70 1015.4
20260509094005 70 9 3.5 6.1 0.00 0.00 0.00 71 1015.4
20260509093505 69 30 3.5 5.2 0.00 0.00 0.00 72 1015.6
20260509093005 69 49 2.6 6.1 0.00 0.00 0.00 69 1015.6
20260509092505 69 126 1.7 7.0 0.00 0.00 0.00 71 1015.5
20260509092006 69 1 2.6 6.1 0.00 0.00 0.00 72 1015.6
20260509091505 68 115 1.7 6.1 0.00 0.00 0.00 72 1015.7
20260509091004 69 125 3.5 8.7 0.00 0.00 0.00 71 1015.4
20260509090503 69 67 1.7 3.5 0.00 0.00 0.00 71 1015.5
20260509090005 68 82 0.9 6.1 0.00 0.00 0.00 71 1015.5
20260509085505 68 133 2.6 5.2 0.00 0.00 0.00 74 1015.5
20260509085006 67 73 1.7 5.2 0.00 0.00 0.00 76 1015.6
20260509084506 67 126 3.5 5.2 0.00 0.00 0.00 77 1015.6
20260509084006 67 41 3.5 7.0 0.00 0.00 0.00 75 1015.6
20260509083506 66 337 0.9 3.5 0.00 0.00 0.00 75 1015.8
20260509083004 66 130 2.6 3.5 0.00 0.00 0.00 77 1015.8
20260509082505 65 128 3.5 7.0 0.00 0.00 0.00 76 1015.7
20260509082004 65 55 4.3 7.0 0.00 0.00 0.00 77 1016.0
20260509081505 64 100 1.7 3.5 0.00 0.00 0.00 79 1015.8
20260509081004 64 95 1.7 7.0 0.00 0.00 0.00 79 1015.9
20260509080505 63 41 1.7 5.2 0.00 0.00 0.00 80 1015.8
20260509080005 62 102 1.7 5.2 0.00 0.00 0.00 81 1016.0
20260509075505 62 130 2.6 7.8 0.00 0.00 0.00 83 1015.9
20260509075005 61 56 3.5 5.2 0.00 0.00 0.00 84 1016.0
20260509074505 61 47 3.5 5.2 0.00 0.00 0.00 84 1015.9
20260509074006 60 31 0.9 3.5 0.00 0.00 0.00 84 1016.1
20260509073505 60 59 5.2 7.8 0.00 0.00 0.00 85 1016.0
20260509073006 59 67 1.7 2.6 0.00 0.00 0.00 85 1016.1
20260509072506 59 54 5.2 7.0 0.00 0.00 0.00 86 1016.1
20260509072005 58 31 1.7 2.6 0.00 0.00 0.00 86 1016.0
20260509071505 58 61 2.6 2.6 0.00 0.00 0.00 86 1015.9
20260509071005 57 58 1.7 6.1 0.00 0.00 0.00 87 1016.0
20260509070504 57 36 3.5 3.5 0.00 0.00 0.00 87 1016.1
20260509070004 57 94 0.9 3.5 0.00 0.00 0.00 87 1016.0
20260509065506 56 66 1.7 2.6 0.00 0.00 0.00 87 1016.1
20260509065004 56 37 2.6 3.5 0.00 0.00 0.00 88 1016.1
20260509064504 55 96 1.7 3.5 0.00 0.00 0.00 87 1016.1
20260509064005 55 75 1.7 2.6 0.00 0.00 0.00 88 1016.1
20260509063504 55 79 1.7 3.5 0.00 0.00 0.00 87 1016.0
20260509063005 54 92 0.9 3.5 0.00 0.00 0.00 88 1015.8
20260509062505 54 45 0.9 1.7 0.00 0.00 0.00 89 1015.9
20260509062005 53 55 0.9 3.5 0.00 0.00 0.00 90 1015.8
20260509061505 53 112 0.9 1.7 0.00 0.00 0.00 90 1015.9
20260509061005 53 114 1.7 1.7 0.00 0.00 0.00 91 1016.0
20260509060506 52 78 0.9 2.6 0.00 0.00 0.00 91 1015.9
20260509060004 52 30 0.9 1.7 0.00 0.00 0.00 91 1015.8
20260509055504 51 1 0.9 1.7 0.00 0.00 0.00 92 1015.7
20260509055005 51 45 0.9 0.9 0.00 0.00 0.00 92 1015.8
20260509054504 51 88 0.0 0.9 0.00 0.00 0.00 92 1015.7
20260509054004 50 86 0.0 0.9 0.00 0.00 0.00 93 1015.8
20260509053505 50 87 0.9 1.7 0.00 0.00 0.00 93 1015.8
20260509053005 50 87 0.9 0.9 0.00 0.00 0.00 93 1015.6
20260509052503 49 86 0.0 0.9 0.00 0.00 0.00 93 1015.5
20260509052005 49 86 0.0 0.0 0.00 0.00 0.00 93 1015.5
20260509051503 49 86 0.0 0.9 0.00 0.00 0.00 93 1015.6
20260509051005 49 87 0.0 0.0 0.00 0.00 0.00 93 1015.5
20260509050503 49 87 0.0 0.0 0.00 0.00 0.00 93 1015.7
20260509050004 49 87 0.0 0.9 0.00 0.00 0.00 93 1015.5
20260509045505 49 87 0.0 0.9 0.00 0.00 0.00 92 1015.4
20260509045004 49 85 0.0 1.7 0.00 0.00 0.00 92 1015.6
20260509044505 49 86 0.9 0.9 0.00 0.00 0.00 92 1015.2
20260509044005 49 100 0.9 1.7 0.00 0.00 0.00 92 1015.4
20260509043505 49 101 0.9 0.9 0.00 0.00 0.00 93 1015.6
20260509043006 49 96 0.0 0.9 0.00 0.00 0.00 93 1015.5
20260509042504 49 45 0.0 1.7 0.00 0.00 0.00 92 1015.5
20260509042005 49 107 1.7 1.7 0.00 0.00 0.00 92 1015.5
20260509041505 49 73 0.9 0.9 0.00 0.00 0.00 92 1015.2
20260509041005 49 3 0.9 2.6 0.00 0.00 0.00 92 1015.2
20260509040505 49 17 1.7 1.7 0.00 0.00 0.00 92 1015.4
20260509040005 49 78 0.0 2.6 0.00 0.00 0.00 92 1015.3
20260509035504 49 84 0.9 1.7 0.00 0.00 0.00 92 1015.3
20260509035005 49 78 1.7 1.7 0.00 0.00 0.00 92 1015.3
20260509034505 49 54 0.9 1.7 0.00 0.00 0.00 92 1015.3
20260509034005 50 25 0.9 1.7 0.00 0.00 0.00 92 1015.1
20260509033504 50 60 1.7 2.6 0.00 0.00 0.00 92 1015.3
20260509033005 50 74 1.7 3.5 0.00 0.00 0.00 92 1015.5
20260509032505 49 83 1.7 3.5 0.00 0.00 0.00 92 1015.5
20260509032005 49 64 1.7 2.6 0.00 0.00 0.00 92 1015.5
20260509031505 49 80 1.7 2.6 0.00 0.00 0.00 92 1015.7
20260509031005 49 75 1.7 2.6 0.00 0.00 0.00 93 1015.6
20260509030505 49 73 1.7 1.7 0.00 0.00 0.00 93 1015.6
20260509030006 49 56 0.9 0.9 0.00 0.00 0.00 92 1015.8
20260509025505 49 69 0.9 0.9 0.00 0.00 0.00 92 1015.7
20260509025005 49 355 0.9 1.7 0.00 0.00 0.00 92 1015.6
20260509024503 49 6 0.9 0.9 0.00 0.00 0.00 92 1015.7
20260509024005 49 76 0.9 1.7 0.00 0.00 0.00 92 1015.6
20260509023505 49 98 0.0 0.9 0.00 0.00 0.00 92 1015.9
20260509023005 49 86 0.0 0.9 0.00 0.00 0.00 92 1015.5
20260509022504 49 61 0.0 1.7 0.00 0.00 0.00 92 1015.5
20260509022004 50 77 0.9 1.7 0.00 0.00 0.00 92 1015.7
20260509021505 50 83 1.7 1.7 0.00 0.00 0.00 93 1015.7